カタログに戻る

SENTINEL-1

運用中科学SSO
NORAD 69897·PAYLOAD·🇩🇪 Germany

打ち上げ Jul 7, 2026 から Vandenberg Space Force Base

Loading…

次のパス (今後24時間)

TLE

最新Source: Space-Track

元期: Sep 14, 2026, 13:01 UTC

1 69897U 26156AE  26257.54263871  .00001355  00000-0  14312-3 0  9995
2 69897  97.7489 156.7629 0000800 326.4243  33.6925 14.90872301 10311

AllMySatでSENTINEL-1をリアルタイム追跡

Download on the App Store